Location: Gleizolles
(44.4833°N, 6.7667°E)
Time: 11:27:10
(UTC+00:00)

Envisat - Pass Details

Date: 16 December 2021
Orbit: 764 x 766 km, 98.2° (Epoch: 20 January)

Event Time Altitude Azimuth Distance (km) Brightness Sun altitude
Rises 06:24:49 0° 354° (N) 3,243 5.9 -6.8°
Reaches altitude 10° 06:28:44 10° 324° (NW) 2,310 4.9 -6.2°
Maximum altitude 06:30:27 12° 304° (NW) 2,190 4.7 -5.9°
Drops below altitude 10° 06:32:09 10° 284° (WNW) 2,305 4.8 -5.6°
Sets 06:36:04 0° 253° (WSW) 3,225 5.8 -5.0°
